Home > Weather > Topeka > Past weeks

Flag for USA Past Weather in Topeka, Kansas, USA — Yesterday and Last 2 Weeks

Now
74 °F

Clear.


Feels Like: 73 °F
Forecast: 71 / 88 °F
Wind: 6 mph from East

Location: Philip Billard Municipal Airport

Current Time: Jul 31, 2016 at 12:38:52 AM

Latest Report: Jul 30, 2016 at 11:53 PM


Visibility: 10 mi

Pressure: 29.94 "Hg

Humidity: 88%

Dew Point: 70 °F

Location of TopekaLocation

Past Weather in Topeka — Graph

°F

Topeka Temperature Yesterday

Maximum temperature yesterday: 84 °F (at 1:53 PM)
Minimum temperature yesterday: 64 °F (at 5:53 AM)
Average temperature yesterday: 74 °F

High & Low Weather Summary for the Past Weeks

 TemperatureHumidityPressure
High100 °F (Jul 22, 2:53 PM)97% (Jul 29, 1:53 AM)30.16 "Hg (Jul 29, 1:53 AM)
Low64 °F (Jul 30, 5:53 AM)35% (Jul 22, 3:53 PM)29.79 "Hg (Jul 23, 7:53 PM)
Average82 °F69%29.97 "Hg
* Reported Jul 15 10:53 PM — Jul 30 10:53 PM, Topeka, Weather by CustomWeather, © 2016

Note: Actual official high and low records may vary slightly from our data, if they occured in-between our weather recording intervals... More about our weather records

Advertising

Topeka Weather History for the Previous 24 Hours

Scroll right to see more
 ConditionsComfort  
Time TempWeatherWind HumidityBarometerVisibility
10:53 PM
Sat, Jul 30
75 °FPassing clouds.5 mph88%29.94 "Hg10 mi
9:53 PM76 °FClear.3 mph85%29.93 "Hg10 mi
8:53 PM77 °FSunny.5 mph79%29.91 "Hg10 mi
7:53 PM80 °FSunny.5 mph69%29.91 "Hg10 mi
6:53 PM83 °FSunny.6 mph63%29.90 "Hg10 mi
5:53 PM83 °FSunny.5 mph59%29.91 "Hg10 mi
4:53 PM81 °FWarm.9 mph65%29.93 "Hg10 mi
3:53 PM79 °FSunny.12 mph72%29.96 "Hg10 mi
2:53 PM72 °FThunderstorms. Cloudy.8 mph78%29.99 "Hg8 mi
1:53 PM84 °FScattered clouds.No wind57%29.98 "Hg10 mi
12:53 PM83 °FPassing clouds.6 mph57%29.99 "Hg10 mi
11:53 AM81 °FPassing clouds.7 mph56%30.00 "Hg10 mi
10:53 AM78 °FScattered clouds.7 mph69%30.01 "Hg10 mi
9:53 AM75 °FPartly sunny.5 mph71%30.01 "Hg10 mi
8:53 AM71 °FOvercast.No wind78%30.00 "Hg10 mi
7:53 AM69 °FSunny.3 mph84%29.98 "Hg10 mi
6:53 AM64 °FClear.No wind94%29.98 "Hg10 mi
5:53 AM64 °FClear.3 mph94%29.98 "Hg10 mi
4:53 AM66 °FClear.No wind90%29.98 "Hg10 mi
3:53 AM66 °FClear.No wind93%29.98 "Hg10 mi
2:53 AM67 °FClear.No wind93%29.98 "Hg10 mi
1:53 AM68 °FClear.No wind90%29.99 "Hg10 mi
12:53 AM70 °FClear.No wind84%30.00 "Hg10 mi
Weather by CustomWeather, © 2016

See weather overviewHow to use our weather pages